Regional Weather Roundup
Issued by NWS Newport/Morehead, NC

Home | Current Version | Previous Version | Text Only | Print | Product List | Glossary On
Versions: 1 2 3 4 5 6 7 8 9 10 11 12 13 14 15 16 17 18 19 20 21 22 23 24 25 26 27 28 29 30 31 32 33 34 35 36 37 38 39 40 41 42 43 44 45 46 47 48 49 50
182
ASUS42 KMHX 291425
RWRMHX
WEATHER ROUNDUP FOR EASTERN NORTH CAROLINA
NATIONAL WEATHER SERVICE NEWPORT/MOREHEAD CITY NC
1000 AM EDT WED MAR 29 2017

NOTE: "FAIR" INDICATES FEW OR NO CLOUDS BELOW 12,000 FEET
WITH NO SIGNIFICANT WEATHER AND/OR OBSTRUCTIONS TO VISIBILITY

NCZ015>017-031-032-045>047-102-103-291500-
NORTH COAST

CITY           SKY/WX    TMP DP  RH WIND       PRES   REMARKS
EDENTON        NOT AVBL
ELIZABETH CITY MOSUNNY   59  50  72 NE16      30.07S
KITTY HAWK     NOT AVBL
MANTEO         CLOUDY    52  48  88 NE18G24   30.07S

$$

NCZ045>047-081-094-103-104-291500-
CENTRAL COAST

CITY           SKY/WX    TMP DP  RH WIND       PRES   REMARKS
FRISCO         CLOUDY    54  50  86 N15G22    30.05R

$$

NCZ095-097-098-100-101-291500-
SOUTHERN COAST

CITY           SKY/WX    TMP DP  RH WIND       PRES   REMARKS
BEAUFORT       CLOUDY    60  58  92 NE14      30.03R
CEDAR ISLAND   NOT AVBL
JACKSONVILLE   MOSUNNY   67  60  78 NE10      30.02R
PINEY ISLAND   CLOUDY   N/A N/A N/A N14G23    30.04R HAZE
WILMINGTON     SUNNY     68  58  70 NE13      30.01R


$$

NCZ011>013-027>030-043-044-078>080-089-090>093-098-291500-
COASTAL PLAIN

CITY           SKY/WX    TMP DP  RH WIND       PRES   REMARKS
AHOSKIE        NOT AVBL
CLINTON        SUNNY     66  58  75 NE7G16    30.06R
ELIZABETHTOWN  SUNNY     67  57  72 CALM      30.04R
GOLDSBORO      MOSUNNY   64  60  86 N10       30.05R
GREENVILLE     MOSUNNY   63  54  72 NE9G16    30.08R
HAVELOCK       CLOUDY    62  57  83 NE15      30.04R
KENANSVILLE    MOSUNNY   64  57  77 NE5       30.06R
KINSTON        SUNNY     64  55  72 N12G17    30.07R
NEW BERN       PTSUNNY   60  57  89 E12       30.07R
RICHLANDS      MOSUNNY   65  58  78 NE13      30.05R
ROCKY MOUNT    SUNNY     63  55  75 NE12      30.07R
WASHINGTON     CLOUDY    58  54  85 NE10G18   30.07R
WHITEVILLE     MOSUNNY   66  56  68 NE6       30.02R

$$

AMZ130-135-150-152-154-156-158-170-250-252-270-ANZ085-086-088-633-658-670-291500-
MARINE OBSERVATIONS

STATION/POSITION TIME  TEMP    WIND        PRES    WAVE   SWELL
                       AIR SEA DIR/SP/G            HT/PER HT/PER
                 (UTC) (F)     (DEG/KT/KT) (MB)    (FT/S) (FT/S)
CHESAPEAKE LIGHT NOT AVBL
64 E VA BEACH    1350   49 47   20/ 16/ 19 1016.9    5/10   3/10
DUCK             1400   49 48   20/ 11/ 13 1017.9
2 E DUCK         1400      51                N/A     5/ 5   2/11
OREGON INLET     1400   50 57   10/ 12/ 17 1017.8
13E OREGON INLT  1348      50                N/A     6/10   3/10
HATTERAS CG      1400   53 61   10/ 21/ 26 1017.1
DIAMOND BUOY     1350   56 74   20/ 21/ 27 1016.4    6/10   3/10
CAPE LOOKOUT     1400   58      30/ 18/ 20 1016.7
BEAUFORT LAB     1400   59 62   20/ 11/ 14 1016.2
30 SE NEW RVR IN 1408   63      50/ 14/ 19 1016.4
30 SE NEW RVR IN 1343      64                N/A     5/10   2/11
27 SE WRIGHTSVLE 1408   65 72   50/ 14/ 19 1015.5
5 SE WRIGHTSVLE  1408   61 59   30/ 12/ 16 1016.1
225 S CAPE HAT   1350   70 72  260/  6/  8 1014.8    6/10   7/10
41 SE CHARLESTON 1350   70 70   40/ 12/ 14 1015.3    5/11   3/11

$$




USA.gov is the U.S. government's official web portal to all federal, state and local government web resources and services.